Home > Weather > Jennersdorf > Past weeks

Flag for Austria Past Weather in Jennersdorf, Burgenland, Austria — Yesterday and Last 2 Weeks

Now
63 °F

Overcast.


Feels Like: 63 °F
Forecast: 62 / 83 °F
Wind: N/A

Location: Graz-Thalerhof-Flughafen

Current Time: Jul 1, 2016 at 6:32:22 AM

Latest Report: Jul 1, 2016 at 6:00 AM


Visibility: 9 mi

Pressure: 30.03 "Hg

Humidity: 96%

Dew Point: 62 °F

Location of JennersdorfLocation

Past Weather in Jennersdorf — Graph

°F

Jennersdorf Temperature Yesterday

Maximum temperature yesterday: 82 °F (at 3:00 PM)
Minimum temperature yesterday: 59 °F (at 6:00 AM)
Average temperature yesterday: 71 °F

High & Low Weather Summary for the Past Weeks

 TemperatureHumidityPressure
High87 °F (Jun 24, 6:00 PM)100% (Jun 21, 4:00 AM)30.27 "Hg (Jun 21, 4:00 AM)
Low50 °F (Jun 28, 5:00 AM)26% (Jun 17, 4:00 PM)29.50 "Hg (Jun 17, 3:00 AM)
Average69 °F72%30.00 "Hg
* Reported Jun 16 5:00 AM — Jul 1 5:00 AM, Jennersdorf, Weather by CustomWeather, © 2016

Note: Actual official high and low records may vary slightly from our data, if they occured in-between our weather recording intervals... More about our weather records

Advertising

Jennersdorf Weather History for the Previous 24 Hours

Scroll right to see more
 ConditionsComfort  
Time TempWeatherWind HumidityBarometerVisibility
5:00 AM
Fri, Jul 1
62 °FOvercast.N/A96%30.03 "Hg6 mi
4:00 AM62 °FOvercast.N/A98%30.02 "Hg6 mi
3:00 AM63 °FOvercast.N/A95%30.01 "Hg18 mi
2:00 AM62 °FOvercast.N/A97%30.01 "Hg7 mi
1:00 AM60 °FPassing clouds.N/A98%30.03 "Hg6 mi
12:00 AM62 °FOvercast.N/A94%30.03 "Hg22 mi
11:00 PM
Thu, Jun 30
62 °FOvercast.N/A94%30.03 "Hg28 mi
10:00 PM62 °FOvercast.12 mph90%30.04 "Hg1 mi
9:00 PM74 °FOvercast.N/A69%29.94 "Hg28 mi
8:00 PM77 °FScattered clouds.3 mph61%29.91 "Hg28 mi
7:00 PM80 °FScattered clouds.6 mph56%29.89 "Hg22 mi
6:00 PM80 °FPartly sunny.3 mph57%29.89 "Hg22 mi
4:00 PM82 °FPartly sunny.5 mph47%29.90 "Hg31 mi
3:00 PM82 °FPartly sunny.5 mph54%29.90 "Hg22 mi
2:00 PM82 °FPartly sunny.5 mph50%29.91 "Hg18 mi
1:00 PM81 °FPartly sunny.N/A54%29.93 "Hg19 mi
12:00 PM78 °FPartly sunny.N/A57%29.95 "Hg25 mi
11:00 AM75 °FPartly sunny.N/A69%29.96 "Hg19 mi
10:00 AM72 °FPartly sunny.N/A71%29.97 "Hg22 mi
9:00 AM69 °FPartly sunny.N/A79%29.97 "Hg16 mi
8:00 AM68 °FOvercast.N/A78%29.97 "Hg12 mi
7:00 AM64 °FPartly sunny.N/A90%29.98 "Hg13 mi
6:00 AM59 °FScattered clouds.N/A94%29.99 "Hg11 mi
Weather by CustomWeather, © 2016

See weather overviewHow to use our weather pages